GALAXY 30 (G-30)

Last updated on Fri Dec 19 2025 00:02:53 GMT+0000 (Coordinated Universal Time)

1 46114U 20056C 25352.60049490 .00000062 00000+0 00000+0 0 9994 2 46114 0.0022 357.0524 0002016 273.5592 268.0359 1.00272839 19487
UTC large
Height (km)
Speed (km/s)
/
Latitude / Longitude
Inclination (degrees)
Orbital Period (minutes)
Azimuth
Elevation
Range (km)
Doppler Factor

Next 0 passes for location: London (51.5072 / 0.1276)

Sorry there are no passes over London.